HULIANWAN GAOGUI-02 (H*)

Last updated on Sun Jun 21 2026 00:03:09 GMT+0000 (Coordinated Universal Time)

1 60327U 24135A 26171.55639622 -.00000178 00000+0 00000+0 0 9993 2 60327 0.0432 354.2481 0007383 13.9786 253.9739 1.00269765 7530
UTC large
Height (km)
Speed (km/s)
/
Latitude / Longitude
Inclination (degrees)
Orbital Period (minutes)
Azimuth
Elevation
Range (km)
Doppler Factor

Next 0 passes for location: London (51.5072 / 0.1276)

No passes found over London.
HULIANWAN GAOGUI-02 (H*)